DMSP 5D-2 F13 DEB, 40416

Orbit data source: Space-Track

DMSP 5D-2 F13 DEB, 40416 is space debris in SSO originally from a launch on Fri, 24 Mar 1995 UTC launched from the Air Force Western Test Range (AFWTR). Debris objects in space refer to the collection of defunct objects orbiting the Earth. Examples of debris include non-operational satellites, rocket bodies, and fragments generated from explosions, collisions, or faulty payload assembly.

Loading next visibility...
Identifier
40416, 1995-015AD
Orbit
SSO
Last TLE update
13 hours ago
Origin
Manufacturer
Unknown
Mission
Spacecraft
Bus & Motor
Unknown
Mass
Unknown
Launch date (UTC)
1995-03-24 (30 years ago)
Launch vehicle
Unknown
Launch site
Air Force Western Test Range (AFWTR)
Object type
Payload
Rocket body
Debris
Shape & HBR
Unknown
Radar Cross Section
Small (<0.1 m²)

Expand to show TLE details & history

TLE from 13 hours ago
0 DMSP 5D-2 F13 DEB
1 40416U 95015AD  25188.78236596  .00001581  00000-0  67502-3 0  9993
2 40416  98.7636 209.5576 0005624  35.9758 324.1800 14.26464154536621
Epoch: 2025-07-07T18:46Z
TLE epoch observation values (Epoch: 2025-07-07T18:46:36.418Z)
Latitude
-0.00001°
Longitude
1.9191°
Altitude
803.221 km
Speed
7.454 km/s
True Right ascension
13h 58m 13s
True Declination
0° 00' 00"
Sunlit
Object was in daylight at epoch
Visualization orbit readout
Latitude
-52.05293°
Longitude
171.115°
Altitude
827.579 km
Speed
7.436 km/s
Apparent Right ascension
04h 42m 33s
Apparent Declination
-57° 36' 01"
Sunlit
Object is in daylight
Visualization observer readout
Local Sidereal Time
19:44:29
Azimuth
136.778° SSE
Elevation
-56.092°
Doppler factor
1
Orbital elements
Apogee altitude
804.764 km
Perigee altitude
796.689 km
Semi-major axis
7,178.864 km
Eccentricity
0.00056
Inclination
98.7636°
RAAN
209.5576°
Arg. of periapsis
35.9758°
True anomaly
Unknown
Mean anomaly
324.18°
Eccentric anomaly
Unknown
Mean motion
3.56829 °/min
Orbital period
100.89 mins
BSTAR
0.00067502
Loading maneuver chart data...
Loading SW <> Apogee altitude chart data...

DMSP 5D-2 F13 DEB Visibility forecast

Observer location: undefined°, undefined°

Span
Click to sort rows by Start time (UTC) header in descending order
Start Az.
Max El. time (UTC)
Max El. Az.
Max El.
End time (UTC)
End Az.
9 mins2025-07-08 13:52:53.724Z28.041° NE2025-07-08 13:56:53.724Z93.195° ESE37.427°2025-07-08 14:01:53.724Z174.718° S
6 mins2025-07-08 15:33:53.724Z331.257° NNW2025-07-08 15:36:53.724Z288.778° WNW19.191°2025-07-08 15:39:53.724Z252.29° W
8 mins2025-07-09 01:12:53.724Z155.499° SSE2025-07-09 01:15:53.724Z102.772° ESE43.714°2025-07-09 01:20:53.724Z350.495° N
|